NOAA-16
1 26536U 00055A 08051.90157565 -.00000186 00000-0 -75608-4 0 08170
2 26536 099.1477 038.5565 0010383 190.3113 169.7839 14.12468610382218
NOAA-17
1 27453U 02032A 08051.77789862 .00000178 00000-0 96216-4 0 08157
2 27453 098.5496 119.7410 0012800 091.3447 268.9194 14.23951075294096
NOAA-18
1 28654U 05018A 08051.77861433 -.00000152 00000-0 -59917-4 0 03261
2 28654 098.8567 354.2202 0013514 288.1303 071.8398 14.11136990141914
HUBBLE
1 20580U 90037B 08051.93657217 .00000345 00000-0 13868-4 0 00788
2 20580 028.4684 007.9414 0003994 215.8170 144.2149 15.00339276777353
UARS
1 21701U 91063B 08052.91246653 .00004387 00000-0 73230-4 0 2973
2 21701 056.9775 308.3570 0081878 318.5306 040.9556 15.50657589904458
PO-34
1 25520U 98064B 08052.89623248 .00000518 00000-0 15729-4 0 9361
2 25520 028.4592 237.3082 0005652 099.1972 260.9256 15.17136363515485
ISS
1 25544U 98067A 08053.05680841 .00010540 00000-0 66208-4 0 9679
2 25544 051.6397 255.0029 0007854 066.6260 072.0350 15.77394032530204
OO-38
1 26063U 00004C 08052.71024202 -.00000029 00000-0 10280-4 0 1410
2 26063 100.2075 106.2257 0036966 177.0920 183.0482 14.35827714422852
UWE-1
1 28892U 05043C 08052.68286486 .00000090 00000-0 28593-4 0 9815
2 28892 098.1104 309.0269 0018374 055.6092 304.6832 14.59594604123608
CO-58
1 28895U 05043F 08052.65406235 .00000144 00000-0 39879-4 0 9539
2 28895 098.1155 309.3089 0018970 055.8021 304.4994 14.59636881123483
NCUBE2
1 28897U 05043H 08051.67250170 .00000128 00000-0 36339-4 0 04857
2 28897 098.1101 308.2865 0018170 059.5259 300.7767 14.59804939115627
FCAL
1 29667U 06055J 08052.86677242 .00052508 12641-4 91967-4 0 7726
2 29667 051.6296 213.9097 0008046 250.9607 109.0532 16.02425972 67820
FALCON
1 30776U 07006E 08051.66148863 .00000368 00000-0 29977-4 0 02709
2 30776 035.4323 146.2077 0001068 025.2684 334.8084 15.02884480052450
MAST
1 31126U 07012K 08051.72411634 -.00000052 00000-0 -85044-6 0 2602
2 31126 098.0529 120.7846 0094391 336.6094 023.0800 14.53399784 44951
CAPE1
1 31130U 07012P 08051.76335747 .00000037 00000-0 19640-4 0 2407
2 31130 098.0526 120.1000 0102492 338.5779 021.1144 14.51932345 44686
